FDX21 EBLG-KIND

Flight info

Callsign FDX21
Flight time N/A
Altitude 34000
Route BUB L608 DENUT L610 LAM L179 UGBET Q60 OKSAW DCT TEWXI DCT LIPGO DCT RESNO/M084F340 DCT 56N020W 57N030W 57N040W 57N050W DCT HOIST/N0491F340 N754B MT DCT REZIN DCT OXASA DCT 46N080W DCT DUTEL Q923 HOCKE DCT SJAAY SNKPT2
Aircraft B77L/H-SDE1E2E3FGHIJ2J3J4J5M1RWXY/LB1D1

Departure

Time 2026-05-08 15:40
Airport Liège Airport (EBLG)

Arrival

Time N/A
Airport Indianapolis International Airport (KIND)
Time Latitude Longitude Altitude Speed Heading
2026-05-08 15:24 50.63633 5.44793 628 ft 0 kts 134°
2026-05-08 15:29 50.63633 5.44792 628 ft 0 kts 134°
2026-05-08 15:32 50.63648 5.44770 642 ft 4 kts 143°
2026-05-08 15:33 50.63670 5.44748 633 ft 4 kts 158°
2026-05-08 15:33 50.63687 5.44738 643 ft 4 kts 167°
2026-05-08 15:33 50.63711 5.44732 643 ft 0 kts 173°
2026-05-08 15:35 50.63710 5.44732 643 ft 1 kts 173°
2026-05-08 15:35 50.63680 5.44686 639 ft 14 kts 229°
2026-05-08 15:36 50.63589 5.44535 638 ft 20 kts 225°
2026-05-08 15:36 50.63488 5.44381 640 ft 20 kts 226°
2026-05-08 15:36 50.63388 5.44221 642 ft 20 kts 225°
2026-05-08 15:36 50.63288 5.44061 645 ft 20 kts 225°
2026-05-08 15:37 50.63198 5.43894 650 ft 14 kts 259°
2026-05-08 15:37 50.63264 5.43846 644 ft 12 kts 10°
2026-05-08 15:37 50.63345 5.43834 648 ft 12 kts 315°
2026-05-08 15:37 50.63339 5.43711 648 ft 12 kts 244°
2026-05-08 15:38 50.63308 5.43583 648 ft 13 kts 252°
2026-05-08 15:38 50.63279 5.43429 641 ft 16 kts 256°
2026-05-08 15:38 50.63250 5.43239 638 ft 18 kts 248°
2026-05-08 15:38 50.63173 5.43084 643 ft 18 kts 227°
2026-05-08 15:39 50.63076 5.42969 647 ft 18 kts 195°
2026-05-08 15:39 50.62960 5.43020 655 ft 18 kts 142°
2026-05-08 15:39 50.62951 5.43165 657 ft 17 kts 49°
2026-05-08 15:39 50.63137 5.43461 649 ft 68 kts 45°
2026-05-08 15:40 50.63639 5.44253 641 ft 133 kts 45°
2026-05-08 15:40 50.64408 5.45475 742 ft 170 kts 46°
2026-05-08 15:40 50.65265 5.46802 1301 ft 175 kts 45°
2026-05-08 15:40 50.66135 5.48172 1866 ft 181 kts 46°
2026-05-08 15:41 50.67048 5.49632 2437 ft 189 kts 46°
2026-05-08 15:41 50.68024 5.51201 2733 ft 213 kts 46°
2026-05-08 15:41 50.69078 5.52902 3401 ft 217 kts 46°
2026-05-08 15:41 50.70142 5.54596 4090 ft 219 kts 46°
2026-05-08 15:42 50.71236 5.56330 4702 ft 226 kts 44°
2026-05-08 15:42 50.72573 5.57630 5167 ft 234 kts 12°
2026-05-08 15:42 50.74198 5.57509 5764 ft 239 kts 337°
2026-05-08 15:42 50.75500 5.55929 6412 ft 240 kts 300°
2026-05-08 15:43 50.76086 5.53492 7021 ft 238 kts 283°
2026-05-08 15:43 50.76511 5.50952 7630 ft 241 kts 284°
2026-05-08 15:43 50.76952 5.48383 8353 ft 242 kts 284°
2026-05-08 15:43 50.77400 5.45793 9031 ft 245 kts 284°
2026-05-08 15:44 50.77848 5.43217 9710 ft 247 kts 283°
2026-05-08 15:44 50.78267 5.40506 10076 ft 265 kts 281°
2026-05-08 15:44 50.78681 5.37547 10313 ft 286 kts 281°
2026-05-08 15:44 50.79125 5.34347 10490 ft 310 kts 281°
2026-05-08 15:45 50.79612 5.30871 10687 ft 336 kts 281°
2026-05-08 15:45 50.80138 5.27135 10925 ft 358 kts 281°
2026-05-08 15:45 50.80694 5.23208 11529 ft 370 kts 282°
2026-05-08 15:45 50.81261 5.19200 12317 ft 377 kts 282°
2026-05-08 15:46 50.81838 5.15120 13252 ft 382 kts 282°
2026-05-08 15:46 50.82418 5.10986 14145 ft 387 kts 281°
2026-05-08 15:46 50.82997 5.06806 14963 ft 391 kts 281°
2026-05-08 15:46 50.83578 5.02595 15785 ft 395 kts 281°
2026-05-08 15:47 50.84160 4.98357 16613 ft 398 kts 281°
2026-05-08 15:47 50.84750 4.94062 17411 ft 403 kts 281°
2026-05-08 15:47 50.85330 4.89820 18184 ft 407 kts 281°
2026-05-08 15:47 50.85944 4.85324 18914 ft 411 kts 281°
2026-05-08 15:48 50.87160 4.76389 20316 ft 418 kts 281°
2026-05-08 15:48 50.87773 4.71866 21004 ft 421 kts 281°
2026-05-08 15:48 50.88390 4.67296 21695 ft 425 kts 281°
2026-05-08 15:49 50.89011 4.62687 22347 ft 429 kts 281°
2026-05-08 15:49 50.89635 4.58032 23008 ft 433 kts 281°
2026-05-08 15:49 50.90350 4.53443 23638 ft 437 kts 289°
2026-05-08 15:49 50.91739 4.49139 24106 ft 440 kts 301°
2026-05-08 15:50 50.93394 4.45013 24557 ft 445 kts 302°
2026-05-08 15:50 50.95067 4.40867 25109 ft 448 kts 302°
2026-05-08 15:50 50.96735 4.36684 25690 ft 450 kts 301°
2026-05-08 15:50 50.98394 4.32452 26270 ft 452 kts 301°
2026-05-08 15:51 51.00044 4.28186 26789 ft 455 kts 301°
2026-05-08 15:51 51.01695 4.23877 27304 ft 458 kts 301°
2026-05-08 15:51 51.03356 4.19521 27819 ft 461 kts 301°
2026-05-08 15:51 51.05018 4.15147 28333 ft 464 kts 301°
2026-05-08 15:52 51.06690 4.10739 28815 ft 467 kts 301°
2026-05-08 15:52 51.08369 4.06310 29267 ft 469 kts 301°
2026-05-08 15:52 51.09835 4.02438 29674 ft 472 kts 301°
2026-05-08 15:52 51.11508 3.98011 30115 ft 473 kts 301°
2026-05-08 15:53 51.13207 3.93509 30578 ft 472 kts 301°
2026-05-08 15:53 51.14899 3.89021 31102 ft 470 kts 301°
2026-05-08 15:53 51.16577 3.84559 31610 ft 468 kts 301°
2026-05-08 15:53 51.18243 3.80123 32055 ft 468 kts 301°
2026-05-08 15:54 51.19924 3.75641 32266 ft 471 kts 302°
2026-05-08 15:54 51.21575 3.71130 32724 ft 469 kts 298°
2026-05-08 15:54 51.22943 3.66429 33283 ft 466 kts 293°
2026-05-08 15:54 51.24052 3.61579 33822 ft 464 kts 289°
2026-05-08 15:55 51.24887 3.56608 34279 ft 463 kts 284°
2026-05-08 15:55 51.26144 3.46550 34941 ft 461 kts 283°
2026-05-08 15:55 51.26786 3.41534 35267 ft 461 kts 283°
2026-05-08 15:56 51.27438 3.36536 35598 ft 460 kts 283°
2026-05-08 15:56 51.28093 3.31526 35916 ft 459 kts 283°
2026-05-08 15:56 51.28745 3.26516 36038 ft 461 kts 283°
2026-05-08 15:56 51.29390 3.21539 36085 ft 461 kts 283°
2026-05-08 15:57 51.30678 3.11525 36097 ft 458 kts 283°
2026-05-08 15:57 51.31948 3.01586 36107 ft 454 kts 283°
2026-05-08 15:58 51.33201 2.91704 36098 ft 452 kts 283°
2026-05-08 15:58 51.34446 2.81833 36106 ft 451 kts 283°
2026-05-08 15:59 51.35668 2.72045 36102 ft 452 kts 283°
2026-05-08 15:59 51.36877 2.62178 36092 ft 452 kts 283°
2026-05-08 16:00 51.38082 2.52256 36104 ft 453 kts 283°
2026-05-08 16:00 51.39279 2.42347 36103 ft 453 kts 282°
2026-05-08 16:01 51.40471 2.32425 36102 ft 453 kts 282°
2026-05-08 16:01 51.41657 2.22516 36096 ft 453 kts 282°
2026-05-08 16:02 51.42865 2.12647 36099 ft 453 kts 283°
2026-05-08 16:02 51.44074 2.02714 36095 ft 453 kts 282°
2026-05-08 16:03 51.45263 1.92795 36100 ft 453 kts 282°
2026-05-08 16:03 51.46429 1.82864 36098 ft 452 kts 282°
2026-05-08 16:04 51.47563 1.72949 36101 ft 452 kts 282°
2026-05-08 16:04 51.48693 1.63030 36103 ft 452 kts 282°
2026-05-08 16:05 51.49817 1.53101 36099 ft 452 kts 282°
2026-05-08 16:05 51.50747 1.44841 36107 ft 452 kts 281°
2026-05-08 16:06 51.51858 1.34912 36105 ft 452 kts 281°
2026-05-08 16:06 51.52955 1.25025 36108 ft 451 kts 281°
2026-05-08 16:07 51.54051 1.15076 36101 ft 451 kts 281°
2026-05-08 16:07 51.55137 1.05151 36097 ft 451 kts 281°
2026-05-08 16:08 51.56219 0.95217 36102 ft 451 kts 281°
2026-05-08 16:08 51.57284 0.85278 36106 ft 450 kts 281°
2026-05-08 16:09 51.58336 0.75383 36099 ft 450 kts 281°
2026-05-08 16:09 51.59386 0.65448 36106 ft 450 kts 280°
2026-05-08 16:10 51.60512 0.55525 36109 ft 449 kts 281°
2026-05-08 16:10 51.61544 0.45660 36102 ft 449 kts 279°
2026-05-08 16:11 51.62530 0.35744 36105 ft 448 kts 279°
2026-05-08 16:11 51.63533 0.25829 36087 ft 448 kts 279°
2026-05-08 16:12 51.64138 0.15843 36084 ft 449 kts 271°
2026-05-08 16:12 51.63660 0.05824 36069 ft 450 kts 262°
2026-05-08 16:13 51.62555 -0.03977 36069 ft 450 kts 261°
2026-05-08 16:13 51.61958 -0.13908 36102 ft 448 kts 270°
2026-05-08 16:14 51.62377 -0.23899 36107 ft 447 kts 276°
2026-05-08 16:14 51.63019 -0.33871 36101 ft 447 kts 276°
2026-05-08 16:15 51.63639 -0.43847 36075 ft 447 kts 276°
2026-05-08 16:15 51.64231 -0.53774 36080 ft 448 kts 276°
2026-05-08 16:16 51.64812 -0.63755 36079 ft 448 kts 275°
2026-05-08 16:16 51.65385 -0.73754 36070 ft 448 kts 275°
2026-05-08 16:17 51.65951 -0.83763 36074 ft 447 kts 275°
2026-05-08 16:17 51.66505 -0.93717 36076 ft 447 kts 275°
2026-05-08 16:18 51.67053 -1.03724 36080 ft 448 kts 275°
2026-05-08 16:18 51.67594 -1.13748 36076 ft 448 kts 275°
2026-05-08 16:19 51.68125 -1.23745 36078 ft 448 kts 275°
2026-05-08 16:19 51.68644 -1.33694 36074 ft 448 kts 274°
2026-05-08 16:20 51.69159 -1.43705 36050 ft 447 kts 274°
2026-05-08 16:20 51.69665 -1.53711 36051 ft 447 kts 274°
2026-05-08 16:21 51.70279 -1.63693 36045 ft 448 kts 280°
2026-05-08 16:21 51.71965 -1.73366 36065 ft 449 kts 289°
2026-05-08 16:22 51.74613 -1.82469 36056 ft 451 kts 295°
2026-05-08 16:22 51.77483 -1.91494 36065 ft 452 kts 295°
2026-05-08 16:23 51.80298 -2.00588 36053 ft 452 kts 294°
2026-05-08 16:23 51.83421 -2.09375 36061 ft 454 kts 300°
2026-05-08 16:24 51.86820 -2.18112 36049 ft 455 kts 300°
2026-05-08 16:24 51.90176 -2.26768 36048 ft 456 kts 299°
2026-05-08 16:25 51.93526 -2.35494 36050 ft 456 kts 299°
2026-05-08 16:25 51.96879 -2.44291 36059 ft 457 kts 299°
2026-05-08 16:26 52.00211 -2.53069 36053 ft 457 kts 299°
2026-05-08 16:26 52.03542 -2.61873 36061 ft 457 kts 299°
2026-05-08 16:27 52.06861 -2.70673 36052 ft 457 kts 298°
2026-05-08 16:27 52.10186 -2.79521 36055 ft 457 kts 298°
2026-05-08 16:28 52.13478 -2.88308 36065 ft 457 kts 298°
2026-05-08 16:28 52.16802 -2.97214 36063 ft 457 kts 298°
2026-05-08 16:29 52.20078 -3.06025 36059 ft 457 kts 298°
2026-05-08 16:29 52.23373 -3.14914 36059 ft 457 kts 298°
2026-05-08 16:30 52.26659 -3.23811 36065 ft 457 kts 298°
2026-05-08 16:30 52.29945 -3.32738 36058 ft 458 kts 298°
2026-05-08 16:31 52.33225 -3.41684 36057 ft 458 kts 298°
2026-05-08 16:31 52.36481 -3.50593 36041 ft 459 kts 298°
2026-05-08 16:32 52.39756 -3.59586 36044 ft 459 kts 297°
2026-05-08 16:32 52.43005 -3.68541 36049 ft 459 kts 297°
2026-05-08 16:33 52.46268 -3.77565 36049 ft 460 kts 297°
2026-05-08 16:33 52.49529 -3.86619 36048 ft 460 kts 297°
2026-05-08 16:34 52.52781 -3.95677 36048 ft 460 kts 297°
2026-05-08 16:34 52.56009 -4.04704 36051 ft 461 kts 297°
2026-05-08 16:35 52.59260 -4.13824 36049 ft 461 kts 297°
2026-05-08 16:35 52.62482 -4.22899 36045 ft 461 kts 297°
2026-05-08 16:36 52.65711 -4.32026 36050 ft 461 kts 297°
2026-05-08 16:36 52.68928 -4.41152 36052 ft 461 kts 297°
2026-05-08 16:37 52.72147 -4.50317 36053 ft 461 kts 296°
2026-05-08 16:37 52.75361 -4.59500 36060 ft 461 kts 296°
2026-05-08 16:38 52.78556 -4.68665 36064 ft 462 kts 296°
2026-05-08 16:38 52.81758 -4.77884 36076 ft 463 kts 296°
2026-05-08 16:39 52.84963 -4.87145 36078 ft 463 kts 296°
2026-05-08 16:39 52.88141 -4.96364 36077 ft 464 kts 296°
2026-05-08 16:40 52.91330 -5.05645 36090 ft 464 kts 296°
2026-05-08 16:40 52.94525 -5.14983 36080 ft 464 kts 296°
2026-05-08 16:41 52.97690 -5.24266 36079 ft 464 kts 296°
2026-05-08 16:42 53.02451 -5.38296 36089 ft 465 kts 296°
2026-05-08 16:42 53.05088 -5.46099 36095 ft 465 kts 296°
2026-05-08 16:43 53.07941 -5.55736 36095 ft 462 kts 289°
2026-05-08 16:43 53.10396 -5.65539 36104 ft 462 kts 289°
2026-05-08 16:44 53.12853 -5.75450 36103 ft 462 kts 289°
2026-05-08 16:44 53.15322 -5.85356 36105 ft 462 kts 289°
2026-05-08 16:45 53.17779 -5.95201 36099 ft 463 kts 289°
2026-05-08 16:45 53.20249 -6.05129 36104 ft 463 kts 289°
2026-05-08 16:46 53.22711 -6.15067 36101 ft 463 kts 289°
2026-05-08 16:46 53.25154 -6.24979 36108 ft 463 kts 289°
2026-05-08 16:47 53.27601 -6.34952 36104 ft 463 kts 289°
2026-05-08 16:47 53.30038 -6.44934 36110 ft 463 kts 288°
2026-05-08 16:48 53.32470 -6.54937 36105 ft 464 kts 288°
2026-05-08 16:48 53.34885 -6.64917 36107 ft 464 kts 288°
2026-05-08 16:49 53.37305 -6.74962 36102 ft 464 kts 288°
2026-05-08 16:49 53.39697 -6.84936 36104 ft 464 kts 288°
2026-05-08 16:50 53.42096 -6.94988 36101 ft 464 kts 288°
2026-05-08 16:50 53.44472 -7.04991 36101 ft 464 kts 288°
2026-05-08 16:51 53.46853 -7.15058 36095 ft 463 kts 288°
2026-05-08 16:51 53.49230 -7.25159 36101 ft 463 kts 288°
2026-05-08 16:52 53.51578 -7.35184 36095 ft 463 kts 288°
2026-05-08 16:52 53.53927 -7.45258 36102 ft 463 kts 288°
2026-05-08 16:53 53.57435 -7.60393 36095 ft 462 kts 288°
2026-05-08 16:53 53.59754 -7.70455 36099 ft 462 kts 288°
2026-05-08 16:54 53.62076 -7.80584 36099 ft 462 kts 288°
2026-05-08 16:54 53.64390 -7.90721 36093 ft 462 kts 288°
2026-05-08 16:55 53.66681 -8.00808 36104 ft 462 kts 288°
2026-05-08 16:55 53.68973 -8.10948 36093 ft 462 kts 288°
2026-05-08 16:56 53.71254 -8.21088 36095 ft 462 kts 288°
2026-05-08 16:56 53.73531 -8.31260 36103 ft 462 kts 288°
2026-05-08 16:57 53.75798 -8.41436 36109 ft 462 kts 288°
2026-05-08 16:57 53.78047 -8.51580 36125 ft 463 kts 287°
2026-05-08 16:58 53.80302 -8.61801 36126 ft 463 kts 287°
2026-05-08 16:58 53.82550 -8.72042 36131 ft 464 kts 287°
2026-05-08 16:59 53.84777 -8.82236 36132 ft 464 kts 287°
2026-05-08 16:59 53.87008 -8.92502 36139 ft 464 kts 287°
2026-05-08 17:00 53.89235 -9.02798 36133 ft 464 kts 287°
2026-05-08 17:00 53.91453 -9.13105 36129 ft 464 kts 287°
2026-05-08 17:01 53.93654 -9.23384 36131 ft 464 kts 287°
2026-05-08 17:01 53.95854 -9.33710 36143 ft 465 kts 287°
2026-05-08 17:02 53.98047 -9.44058 36138 ft 465 kts 286°
2026-05-08 17:02 54.00218 -9.54356 36151 ft 465 kts 286°
2026-05-08 17:03 54.02400 -9.64754 36151 ft 466 kts 286°
2026-05-08 17:03 54.04557 -9.75085 36163 ft 466 kts 286°
2026-05-08 17:04 54.06717 -9.85490 36168 ft 465 kts 285°
2026-05-08 17:04 54.08868 -9.95905 36158 ft 465 kts 285°
2026-05-08 17:05 54.11007 -10.06316 36169 ft 465 kts 285°
2026-05-08 17:05 54.13126 -10.16682 36175 ft 465 kts 285°
2026-05-08 17:06 54.15247 -10.27114 36177 ft 465 kts 285°
2026-05-08 17:06 54.17362 -10.37572 36181 ft 465 kts 285°
2026-05-08 17:07 54.19453 -10.47962 36181 ft 465 kts 285°
2026-05-08 17:07 54.21547 -10.58426 36185 ft 465 kts 284°
2026-05-08 17:08 54.23621 -10.68839 36005 ft 461 kts 283°
2026-05-08 17:08 54.24639 -10.73941 36066 ft 446 kts 283°
2026-05-08 17:08 54.25634 -10.78944 36129 ft 440 kts 283°
2026-05-08 17:09 54.27582 -10.88864 36190 ft 445 kts 282°
2026-05-08 17:09 54.29551 -10.98957 36201 ft 450 kts 283°
2026-05-08 17:10 54.31546 -11.09202 36199 ft 454 kts 283°
2026-05-08 17:10 54.33541 -11.19485 36202 ft 455 kts 282°
2026-05-08 17:11 54.35523 -11.29746 36206 ft 454 kts 282°
2026-05-08 17:11 54.37497 -11.40027 36196 ft 452 kts 282°
2026-05-08 17:12 54.39436 -11.50190 36204 ft 450 kts 282°
2026-05-08 17:12 54.41376 -11.60414 36207 ft 449 kts 282°
2026-05-08 17:13 54.43302 -11.70621 36207 ft 448 kts 282°
2026-05-08 17:13 54.45205 -11.80759 36211 ft 448 kts 282°
2026-05-08 17:14 54.47114 -11.90983 36211 ft 448 kts 282°
2026-05-08 17:14 54.49017 -12.01229 36216 ft 449 kts 282°
2026-05-08 17:15 54.50898 -12.11418 36217 ft 450 kts 282°
2026-05-08 17:15 54.52789 -12.21712 36220 ft 451 kts 282°
2026-05-08 17:16 54.54671 -12.32013 36223 ft 452 kts 282°
2026-05-08 17:16 54.56551 -12.42361 36223 ft 452 kts 282°
2026-05-08 17:17 54.58415 -12.52678 36229 ft 453 kts 282°
2026-05-08 17:17 54.60282 -12.63069 36235 ft 454 kts 282°
2026-05-08 17:18 54.62146 -12.73506 36242 ft 454 kts 282°
2026-05-08 17:18 54.64000 -12.83946 36229 ft 454 kts 282°
2026-05-08 17:19 54.65834 -12.94335 36238 ft 454 kts 282°
2026-05-08 17:19 54.67675 -13.04822 36235 ft 454 kts 282°
2026-05-08 17:20 54.69488 -13.15215 36242 ft 454 kts 282°
2026-05-08 17:20 54.71308 -13.25700 36247 ft 455 kts 282°
2026-05-08 17:21 54.73116 -13.36187 36247 ft 455 kts 282°
2026-05-08 17:21 54.74917 -13.46686 36247 ft 455 kts 283°
2026-05-08 17:22 54.76701 -13.57152 36248 ft 455 kts 283°
2026-05-08 17:22 54.78487 -13.67696 36250 ft 455 kts 283°
2026-05-08 17:23 54.80266 -13.78257 36255 ft 456 kts 283°
2026-05-08 17:23 54.82035 -13.88825 36252 ft 457 kts 283°
2026-05-08 17:24 54.83493 -13.97587 36261 ft 457 kts 283°
2026-05-08 17:24 54.85251 -14.08202 36260 ft 458 kts 283°
2026-05-08 17:25 54.87296 -14.20636 36259 ft 459 kts 283°
2026-05-08 17:25 54.88748 -14.29521 36269 ft 459 kts 283°
2026-05-08 17:26 54.90488 -14.40233 36266 ft 460 kts 283°
2026-05-08 17:26 54.92222 -14.50971 36265 ft 461 kts 283°
2026-05-08 17:27 54.93941 -14.61682 36276 ft 462 kts 283°
2026-05-08 17:27 54.95662 -14.72477 36273 ft 462 kts 283°
2026-05-08 17:28 54.97365 -14.83228 36278 ft 463 kts 283°
2026-05-08 17:28 54.99071 -14.94058 36278 ft 464 kts 283°
2026-05-08 17:29 55.01009 -15.04804 36282 ft 466 kts 289°
2026-05-08 17:29 55.03394 -15.15340 36289 ft 467 kts 290°
2026-05-08 17:30 55.05776 -15.25805 36288 ft 467 kts 289°
2026-05-08 17:30 55.08151 -15.36392 36291 ft 467 kts 289°
2026-05-08 17:31 55.10503 -15.47003 36295 ft 468 kts 289°